Volver al catálogo

STARLINK-3287

ActivoComunicacionesVLEO
NORAD 50172·PAYLOAD·🇺🇸 United States

Lanzado Dec 18, 2021 desde Vandenberg Space Force Base

Loading…

Próximos Pases (próximas 24 horas)

TLE

ActualizadoSource: CelesTrak SupGP

Época: Sep 14, 2026, 21:49 UTC

1 50172C 21125S   26257.90951389 -.00006318  00000+0 -18668-3 0  2570
2 50172  53.1586 109.5086 0001362  86.0160 313.4208 15.34388930    13

Sigue STARLINK-3287 en tiempo real con AllMySat

Download on the App Store